Track COSMOS 2441 now! 10-day predictions COSMOS 2441 is classified as:
1 33272U 08037A 23160.55906480 .00000245 00000-0 71230-4 0 9992 2 33272 98.1964 107.9656 0017284 132.5519 227.7139 14.52156385787832